Weather History for Franklin, PA

Change the Weather History Date:

Monday, December 31, 2012

  Actual Average Record
Temperature  
Mean Temperature 24 °F -  
Max Temperature 30 °F 35 °F 64 °F (1971)
Min Temperature 17 °F 18 °F -7 °F (1963)
Degree Days  
Heating Degree Days 42    
Moisture  
Dew Point 20 °F    
Average Humidity 82    
Maximum Humidity 93    
Minimum Humidity 64    
Precipitation  
Precipitation 0.00 in - - ()
Sea Level Pressure  
Sea Level Pressure 30.05 in    
Wind  
Wind Speed 12 mph (SW)    
Max Wind Speed 20 mph    
Max Gust Speed 26 mph    
Visibility 9 miles    
Events      
Averages and records for this station are not official NWS values.
T = Trace of Precipitation, MM = Missing Value Source: NWS Daily Summary

Daily Weather History Graph

Daily Weather History Graph

Search for Another Location

Airport:

Trip Planner

Search our weather history database for the weather conditions in past years. The results will help you decide how hot, cold, wet, or windy it might be!

Date:

Astronomy

Dec. 31, 2012 Rise Set
Actual Time 7:45 AM EST 5:00 PM EST
Civil Twilight 7:14 AM EST 5:31 PM EST
Nautical Twilight 6:39 AM EST 6:06 PM EST
Astronomical Twilight 6:05 AM EST 6:39 PM EST
Moon 8:31 PM EST (12/31) 9:24 AM EST (12/31)
Length of Visible Light 10h 17m
Length of Day
9h 14m
Waning Gibbous, 90% of the Moon is Illuminated
Dec 31
Waning Gibbous
Jan 4
Last Quarter
Jan 11
New
Jan 18
First Quarter
Jan 26
Full

Hourly Weather History & Observations

Time (EST) Temp. Windchill Dew Point Humidity Pressure Visibility Wind Dir Wind Speed Gust Speed Precip Events Conditions
12:15 AM 17.6 °F 5.7 °F 14.0 °F 86% 30.25 in 10.0 mi SW 10.4 mph - N/A   Scattered Clouds
12:35 AM 19.4 °F 8.6 °F 15.8 °F 86% 30.23 in 10.0 mi SW 9.2 mph - N/A   Overcast
1:15 AM 19.4 °F 7.2 °F 15.8 °F 86% 30.22 in 10.0 mi SW 11.5 mph 19.6 mph N/A   Mostly Cloudy
1:35 AM 19.4 °F 6.0 °F 15.8 °F 86% 30.21 in 10.0 mi SW 13.8 mph - N/A   Overcast
1:55 AM 19.4 °F 7.9 °F 17.6 °F 93% 30.20 in 10.0 mi SW 10.4 mph - N/A   Overcast
2:15 AM 19.4 °F 7.9 °F 17.6 °F 93% 30.19 in 10.0 mi SW 10.4 mph - N/A   Overcast
2:55 AM 19.4 °F 6.0 °F 17.6 °F 93% 30.19 in 10.0 mi SW 13.8 mph 18.4 mph N/A   Overcast
3:15 AM 19.4 °F 7.9 °F 17.6 °F 93% 30.19 in 10.0 mi SW 10.4 mph - N/A   Mostly Cloudy
3:35 AM 19.4 °F 7.2 °F 15.8 °F 86% 30.18 in 10.0 mi SW 11.5 mph - N/A   Mostly Cloudy
3:55 AM 19.4 °F 8.6 °F 15.8 °F 86% 30.17 in 10.0 mi SW 9.2 mph - N/A   Mostly Cloudy
4:15 AM 19.4 °F 7.2 °F 15.8 °F 86% 30.15 in 10.0 mi SW 11.5 mph - N/A   Overcast
4:35 AM 19.4 °F 7.9 °F 15.8 °F 86% 30.15 in 10.0 mi SW 10.4 mph 16.1 mph N/A   Overcast
4:55 AM 19.4 °F 9.5 °F 17.6 °F 93% 30.13 in 10.0 mi SW 8.1 mph - N/A   Overcast
5:15 AM 19.4 °F 8.6 °F 17.6 °F 93% 30.14 in 10.0 mi SW 9.2 mph - N/A   Overcast
5:35 AM 19.4 °F 5.5 °F 17.6 °F 93% 30.12 in 10.0 mi SSW 15.0 mph 21.9 mph N/A   Overcast
5:55 AM 19.4 °F 8.6 °F 17.6 °F 93% 30.13 in 10.0 mi SW 9.2 mph - N/A   Scattered Clouds
6:15 AM 19.4 °F 8.6 °F 17.6 °F 93% 30.13 in 10.0 mi SSW 9.2 mph - N/A   Partly Cloudy
6:35 AM 19.4 °F 8.6 °F 17.6 °F 93% 30.13 in 10.0 mi SW 9.2 mph - N/A   Clear
6:55 AM 19.4 °F 8.6 °F 17.6 °F 93% 30.13 in 10.0 mi SW 9.2 mph - N/A   Clear
7:15 AM 19.4 °F 6.6 °F 17.6 °F 93% 30.13 in 10.0 mi SW 12.7 mph - N/A   Clear
7:55 AM 21.2 °F 8.9 °F 17.6 °F 86% 30.12 in 10.0 mi SW 12.7 mph - N/A   Clear
8:15 AM 21.2 °F 8.3 °F 17.6 °F 86% 30.11 in 10.0 mi SW 13.8 mph 20.7 mph N/A   Clear
8:35 AM 21.2 °F 7.8 °F 17.6 °F 86% 30.10 in 10.0 mi SW 15.0 mph 19.6 mph N/A   Clear
8:55 AM 21.2 °F 9.5 °F 17.6 °F 86% 30.10 in 10.0 mi SSW 11.5 mph - N/A   Clear
9:15 AM 23.0 °F 9.2 °F 17.6 °F 80% 30.09 in 10.0 mi SSW 17.3 mph - N/A   Clear
9:35 AM 24.8 °F 11.5 °F 19.4 °F 80% 30.08 in 10.0 mi SW 17.3 mph 24.2 mph N/A   Clear
9:55 AM 24.8 °F 12.4 °F 17.6 °F 74% 30.09 in 10.0 mi SW 15.0 mph 26.5 mph N/A   Clear
10:15 AM 24.8 °F 12.9 °F 19.4 °F 80% 30.08 in 10.0 mi SW 13.8 mph 24.2 mph N/A   Clear
10:35 AM 26.6 °F 15.2 °F 19.4 °F 74% 30.08 in 10.0 mi SW 13.8 mph 20.7 mph N/A   Partly Cloudy
10:55 AM 26.6 °F 15.2 °F 17.6 °F 69% 30.07 in 10.0 mi SW 13.8 mph 18.4 mph N/A   Clear
11:15 AM 28.4 °F 16.6 °F 19.4 °F 69% 30.06 in 10.0 mi SW 16.1 mph 23.0 mph N/A   Clear
11:35 AM 28.4 °F 18.0 °F 17.6 °F 64% 30.06 in 10.0 mi WSW 12.7 mph 25.3 mph N/A   Clear
11:55 AM 28.4 °F 15.4 °F 17.6 °F 64% 30.04 in 10.0 mi SW 19.6 mph 23.0 mph N/A   Clear
12:15 PM 28.4 °F 19.1 °F 17.6 °F 64% 30.03 in 10.0 mi WSW 10.4 mph 23.0 mph N/A   Mostly Cloudy
12:35 PM 28.4 °F 18.0 °F 19.4 °F 69% 30.02 in 10.0 mi SW 12.7 mph 19.6 mph N/A   Overcast
12:55 PM 28.4 °F 16.6 °F 19.4 °F 69% 30.01 in 10.0 mi SW 16.1 mph 19.6 mph N/A   Overcast
1:15 PM 28.4 °F 17.5 °F 19.4 °F 69% 30.00 in 10.0 mi SW 13.8 mph 20.7 mph N/A   Mostly Cloudy
1:35 PM 30.2 °F 18.9 °F 19.4 °F 64% 29.99 in 10.0 mi SW 16.1 mph 24.2 mph N/A   Scattered Clouds
1:55 PM 30.2 °F 19.8 °F 19.4 °F 64% 29.98 in 10.0 mi WSW 13.8 mph 19.6 mph N/A   Clear
2:15 PM 30.2 °F 21.9 °F 19.4 °F 64% 29.97 in 10.0 mi SW 9.2 mph 23.0 mph N/A   Scattered Clouds
2:35 PM 30.2 °F 19.3 °F 19.4 °F 64% 29.97 in 10.0 mi SW 15.0 mph 23.0 mph N/A   Scattered Clouds
2:55 PM 30.2 °F 19.8 °F 19.4 °F 64% 29.96 in 10.0 mi SW 13.8 mph 19.6 mph N/A   Clear
3:15 PM 30.2 °F 18.5 °F 19.4 °F 64% 29.97 in 10.0 mi SW 17.3 mph 24.2 mph N/A   Mostly Cloudy
3:35 PM 30.2 °F 20.8 °F 19.4 °F 64% 29.96 in 10.0 mi SW 11.5 mph 23.0 mph N/A   Overcast
3:55 PM 30.2 °F 17.8 °F 19.4 °F 64% 29.96 in 10.0 mi SW 19.6 mph 25.3 mph N/A   Overcast
4:15 PM 30.2 °F 18.9 °F 19.4 °F 64% 29.97 in 10.0 mi WSW 16.1 mph 20.7 mph N/A   Overcast
4:35 PM 30.2 °F 18.5 °F 21.2 °F 69% 29.96 in 10.0 mi WSW 17.3 mph 25.3 mph N/A   Overcast
4:55 PM 30.2 °F 21.9 °F 21.2 °F 69% 29.95 in 10.0 mi SW 9.2 mph 20.7 mph N/A   Overcast
5:35 PM 28.4 °F 18.5 °F 24.8 °F 86% 29.96 in 2.5 mi WSW 11.5 mph - N/A   Overcast
5:55 PM 28.4 °F 18.0 °F 24.8 °F 86% 29.96 in 2.0 mi SW 12.7 mph 18.4 mph N/A   Overcast
6:15 PM 28.4 °F 17.5 °F 24.8 °F 86% 29.95 in 2.5 mi SW 13.8 mph - N/A   Overcast
6:35 PM 28.4 °F 18.5 °F 26.6 °F 93% 29.96 in 2.5 mi WSW 11.5 mph 19.6 mph N/A   Overcast
7:15 PM 28.4 °F 17.5 °F 26.6 °F 93% 29.95 in 3.0 mi SW 13.8 mph 19.6 mph N/A   Overcast
7:35 PM 28.4 °F 17.5 °F 26.6 °F 93% 29.95 in 4.0 mi SW 13.8 mph 20.7 mph N/A   Overcast
8:15 PM 28.4 °F 17.0 °F 26.6 °F 93% 29.94 in 3.0 mi WSW 15.0 mph 25.3 mph N/A   Overcast
8:35 PM 28.4 °F 17.5 °F 26.6 °F 93% 29.94 in 3.0 mi WSW 13.8 mph 19.6 mph N/A   Overcast
8:55 PM 28.4 °F 18.0 °F 26.6 °F 93% 29.95 in 3.0 mi WSW 12.7 mph 19.6 mph N/A   Overcast
9:15 PM 28.4 °F 18.0 °F 26.6 °F 93% 29.96 in 4.0 mi WSW 12.7 mph 19.6 mph N/A   Overcast
9:35 PM 30.2 °F 19.8 °F 26.6 °F 86% 29.95 in 5.0 mi WSW 13.8 mph 18.4 mph N/A   Overcast
9:55 PM 30.2 °F 20.8 °F 26.6 °F 86% 29.95 in 7.0 mi WSW 11.5 mph 20.7 mph N/A   Overcast
10:15 PM 30.2 °F 19.8 °F 26.6 °F 86% 29.94 in 7.0 mi West 13.8 mph 20.7 mph N/A   Overcast
10:35 PM 30.2 °F 20.2 °F 26.6 °F 86% 29.95 in 10.0 mi WSW 12.7 mph 16.1 mph N/A   Overcast
10:55 PM 30.2 °F 20.8 °F 26.6 °F 86% 29.95 in 10.0 mi West 11.5 mph - N/A   Overcast
11:15 PM 30.2 °F 21.3 °F 26.6 °F 86% 29.96 in 10.0 mi West 10.4 mph - N/A   Overcast
11:35 PM 30.2 °F 20.8 °F 26.6 °F 86% 29.95 in 10.0 mi West 11.5 mph - N/A   Overcast
11:55 PM 30.2 °F 22.6 °F 26.6 °F 86% 29.95 in 10.0 mi West 8.1 mph 16.1 mph N/A   Overcast